Hourly Data Report for September 03, 2017

All times are specified in Local Standard Time (LST). Add 1 hour to adjust for Daylight Saving Time where and when it is observed.

FREDERICTON
NEW BRUNSWICK

45°52'08.000" N
66°32'14.000" W
20.70 m
8101505
71700
YFC

Download Data

Hourly Data (September 2017)
Hourly Data Report for September 3, 2017
Temp Definition
°C
Dew Point Temp Definition
°C
Rel Hum Definition
%
Wind Dir Definition
10's deg

Wind Spd Definition
km/h
Visibility Definition
km
Stn Press Definition
kPa
Hmdx Definition


Wind Chill Definition


Weather Definition


TIME
00:00 Legend Double Dagger 8.3 6.9 91 18 8 16.1 102.02     LegendNANA
01:00 Legend Double Dagger 8.1 7.0 93 19 4 16.1 102.03     LegendNANA
02:00 Legend Double Dagger 6.0 5.4 96 18 5 16.1 102.04     LegendNANA
03:00 Legend Double Dagger 5.3 4.9 97   0 16.1 102.04     LegendNANA
04:00 Legend Double Dagger 6.0 5.6 97 20 4 16.1 102.04     LegendNANA
05:00 Legend Double Dagger 4.8 4.4 97   0 16.1 102.04     LegendNANA
06:00 Legend Double Dagger 3.8 3.5 98   0 0.0 102.06     Fog
07:00 Legend Double Dagger 6.8 6.7 99   0 0.0 102.09     Fog
08:00 Legend Double Dagger 8.8 8.7 99 6 5 0.2 102.13     Fog
09:00 Legend Double Dagger 10.6 9.5 93   0 16.1 102.13     LegendNANA
10:00 Legend Double Dagger 11.8 10.2 90 6 5 16.1 102.05     LegendNANA
11:00 Legend Double Dagger 14.4 11.3 81 LegendMM 4 16.1 102.02     LegendNANA
12:00 Legend Double Dagger 17.1 11.5 69 17 5 16.1 101.96     LegendNANA
13:00 Legend Double Dagger 19.6 10.4 55 16 13 16.1 101.85     LegendNANA
14:00 Legend Double Dagger 20.9 9.3 47 16 22 16.1 101.74     LegendNANA
15:00 Legend Double Dagger 19.8 7.9 46 14 18 16.1 101.67     LegendNANA
16:00 Legend Double Dagger 18.3 7.6 49 16 21 16.1 101.63     LegendNANA
17:00 Legend Double Dagger 17.2 8.6 57 15 15 16.1 101.52     LegendNANA
18:00 Legend Double Dagger 16.7 9.2 61 14 15 16.1 101.43     LegendNANA
19:00 Legend Double Dagger 15.8 9.5 66 14 15 16.1 101.33     LegendNANA
20:00 Legend Double Dagger 15.2 9.6 69 11 18 16.1 101.21     LegendNANA
21:00 Legend Double Dagger 14.7 9.8 72 11 18 16.1 101.11     LegendNANA
22:00 Legend Double Dagger 13.6 10.6 82 10 22 16.1 100.96     Rain
23:00 Legend Double Dagger 12.5 11.6 94 6 15 6.4 100.77     Rain,Fog

Notes on Data Quality.

Legend

  • E = Estimated
  • M = Missing
  • NA = Not Available
  • ‡ = Partner data that is not subject to review by the National Climate Archives
Date modified: